RH
100 100 100 99 95 91 89 89 90 91 94 93 90 90 93 94 94 96 98 102 106 106 104 103 103 103 102 102 101 101 100 99 100 102 103 104 106 108 106 103 104 102 102 105 105 107 107 106 104 103 103 102 102 102 102 102 102 104 107 108 108 107 105 103 104 107 105 105 106 105 104 105 104 103 103 103 102 103 103 104 105 104 105 105 106 107 106 107
100 101 100 100 100 99 97 96 94 92 92 92 90 89 88 88 88 90 94 97 101 105 106 105 105 105 104 103 103 103 104 104 104 105 104 104 104 105 104 104 105 103 103 104 102 102 103 103 103 103 103 103 102 102 102 101 101 102 103 105 106 104 102 102 104 105 105 106 107 106 106 106 106 105 105 105 103 103 104 104 104 105 106 108 108 108 108 108
100 100 101 101 100 100 100 100 99 98 97 97 96 95 93 90 87 85 87 87 89 94 100 102 103 104 105 105 106 107 107 106 107 108 107 107 106 105 103 103 102 102 103 105 105 103 102 102 102 103 102 102 102 102 102 101 101 101 102 103 103 101 100 101 101 101 102 102 102 102 102 102 102 101 101 102 102 101 100 96 95 97 99 102 103 103 104 104
101 100 100 101 101 101 100 101 100 100 101 101 100 100 100 99 97 95 92 89 87 88 90 92 93 93 95 98 102 105 105 105 106 106 105 104 103 101 99 97 95 95 96 97 99 100 101 102 104 105 105 106 107 106 105 105 105 105 105 104 102 102 102 101 101 101 101 101 101 100 100 101 100 100 100 101 101 100 100 97 95 96 97 99 100 101 101 101
103 102 101 100 101 100 100 101 100 100 101 101 101 101 101 100 101 101 99 99 96 95 95 95 94 91 87 85 87 91 93 96 101 103 104 103 103 101 99 98 95 94 92 91 90 89 90 91 92 93 95 97 99 100 102 103 104 105 106 103 101 102 102 102 103 104 104 104 104 103 103 102 102 103 102 103 104 103 102 103 102 102 101 101 101 100 99 99
102 104 102 100 100 100 100 101 100 100 100 100 100 100 100 101 101 101 101 101 100 100 100 99 100 99 95 89 84 83 83 85 89 95 99 101 101 99 97 96 95 96 96 94 91 89 87 85 85 85 85 85 86 89 90 92 93 95 96 94 92 91 91 91 93 95 97 98 98 98 98 98 99 100 99 99 101 100 99 100 100 100 98 96 94 92 90 88
79 93 99 101 101 101 100 100 100 100 101 101 101 100 100 100 100 100 100 100 101 100 101 101 100 101 101 100 98 94 92 90 87 89 92 95 97 96 96 94 92 92 93 92 90 89 88 87 86 85 84 83 83 83 82 82 82 83 83 81 80 78 77 76 76 77 79 80 81 81 81 80 82 84 85 85 86 87 88 89 90 91 89 87 85 81 78 75
43 59 73 84 92 99 102 102 101 100 100 100 100 100 101 102 102 103 101 100 101 100 100 100 100 100 100 101 102 102 101 100 98 97 98 99 101 102 103 102 102 101 99 98 96 94 93 93 92 91 90 88 87 84 82 80 78 78 76 74 71 70 68 67 66 67 67 68 68 68 67 67 67 68 70 72 74 75 76 77 77 79 80 80 80 79 79 78
25 31 40 50 59 72 83 93 99 102 103 103 102 101 101 102 102 102 101 100 101 101 101 101 100 100 100 100 101 100 100 100 101 101 101 101 102 102 103 104 105 104 105 106 104 103 102 101 100 99 98 98 97 95 94 92 90 89 87 84 81 78 76 75 74 73 73 72 70 68 65 65 66 67 70 72 73 73 71 71 70 71 73 75 77 80 83 84
22 24 27 31 35 40 48 58 68 78 86 92 96 99 101 102 102 102 101 100 100 100 100 100 100 100 100 100 100 101 100 100 101 101 101 101 101 101 101 102 102 103 107 108 107 107 107 106 106 105 104 103 102 101 101 101 101 100 100 100 98 96 95 93 93 92 92 91 90 88 82 80 82 84 87 87 86 85 83 81 79 76 74 73 73 75 76 77
24 25 27 29 32 34 36 39 42 47 54 61 67 74 80 85 90 95 98 100 101 102 102 101 101 101 101 101 100 100 100 100 100 100 100 100 100 100 100 101 101 102 104 104 103 104 104 104 102 103 103 102 102 103 103 102 101 100 100 100 99 99 100 101 104 103 103 102 100 99 98 96 97 99 100 97 93 89 87 86 84 82 79 75 72 70 69 69
28 29 31 32 33 35 37 39 41 43 45 48 50 53 57 61 65 69 74 79 83 87 90 92 95 96 98 99 100 101 101 102 102 102 102 102 102 101 101 101 102 102 102 102 102 101 101 100 99 99 100 100 101 102 101 100 100 99 98 96 90 86 89 95 101 103 102 102 101 100 100 99 100 102 102 100 98 95 93 92 90 90 89 87 86 84 82 80
34 35 35 36 37 38 39 40 41 42 44 45 47 49 51 52 53 55 57 59 62 64 65 68 71 73 76 78 81 83 86 89 90 92 92 93 93 94 94 93 94 94 94 94 94 93 94 94 94 95 95 96 98 98 97 97 99 99 98 98 93 87 87 91 97 100 100 102 101 102 102 101 102 104 102 101 101 101 100 99 98 97 96 95 94 93 92 91
38 39 39 39 40 40 40 41 41 42 42 43 45 46 48 49 50 52 54 55 56 57 57 58 60 61 63 64 65 67 68 70 72 74 75 76 76 77 77 77 76 75 75 75 75 75 75 75 75 77 78 79 80 80 80 81 82 83 83 84 83 82 82 82 85 87 88 89 90 91 91 90 91 91 90 89 89 89 88 87 86 85 84 83 82 81 81 79
40 39 39 39 39 39 39 40 40 41 41 42 44 45 46 47 48 50 52 54 54 55 56 58 60 62 64 65 66 67 68 69 70 71 72 73 72 72 71 71 71 71 71 71 70 69 68 67 67 69 70 70 70 70 69 69 69 69 70 69 68 68 68 68 68 67 68 68 68 70 70 71 72 73 74 75 75 75 74 73 71 69 68 67 67 66 65 64
42 41 40 40 40 39 40 40 40 41 42 43 43 44 45 46 48 51 53 55 56 56 57 58 61 62 65 67 66 68 69 68 69 69 69 69 69 69 68 68 69 70 72 73 73 72 70 70 71 72 73 73 73 72 71 71 71 71 71 71 69 69 69 68 68 66 66 65 63 64 64 65 67 69 71 73 75 77 76 74 71 69 66 65 64 63 62 62
46 44 43 43 43 43 43 43 43 44 45 46 46 47 47 48 49 51 54 55 56 57 57 58 60 61 64 65 65 67 67 66 66 65 65 65 66 67 67 67 67 67 69 70 70 71 71 71 71 71 71 70 69 68 67 68 68 68 68 68 66 66 66 65 63 61 61 61 61 60 60 61 62 65 68 71 74 75 75 74 71 69 66 63 62 60 60 60
49 48 49 48 47 47 47 47 47 47 48 49 50 50 49 49 49 51 54 55 56 57 57 58 59 61 63 62 62 64 64 64 64 64 64 64 65 66 65 66 66 67 67 66 65 65 66 65 65 65 64 64 64 63 63 63 62 61 61 61 61 61 62 61 61 60 60 60 60 61 61 61 62 64 67 70 72 73 74 74 74 72 70 68 66 64 64 63
54 54 54 53 53 52 52 52 52 51 51 51 51 52 52 52 52 54 57 58 60 62 62 63 63 64 65 64 64 64 64 64 64 64 65 65 66 66 65 65 65 65 65 65 65 65 65 66 66 67 68 69 70 71 72 72 72 71 71 71 71 71 70 69 70 70 70 70 70 71 71 71 72 74 75 77 78 80 81 82 82 81 79 78 77 77 75 74
61 60 60 61 60 59 59 59 58 58 58 58 59 60 62 63 63 63 63 64 66 67 68 68 68 69 71 71 72 72 73 73 73 73 74 75 76 76 76 75 75 75 75 75 75 74 73 74 74 74 74 75 76 77 79 80 81 81 81 81 81 81 79 76 75 73 71 70 69 68 68 69 71 73 75 77 78 80 82 83 84 83 82 83 83 84 84 84
68 68 69 69 68 66 65 64 62 61 62 63 65 66 68 69 67 66 65 64 65 66 68 69 71 73 75 77 78 79 81 81 80 79 78 78 78 79 78 77 77 76 74 75 75 74 73 74 73 72 72 71 71 72 72 73 74 75 75 76 77 77 76 76 76 76 72 70 68 64 64 65 65 66 67 68 70 72 74 75 76 75 76 78 79 80 81 82
74 74 73 73 72 69 67 65 63 62 63 64 65 65 65 63 62 62 63 64 65 66 68 70 72 73 73 72 71 70 71 71 69 66 64 64 64 65 64 63 64 63 61 61 61 61 61 61 60 59 59 58 57 57 56 56 55 56 56 57 58 58 58 59 60 61 60 59 57 55 56 57 55 55 54 54 55 55 56 56 56 55 56 56 57 57 57 58
79 79 78 74 70 66 65 66 66 67 66 64 63 63 62 60 61 62 63 65 65 65 65 66 65 63 61 59 57 56 57 56 56 54 53 53 53 53 52 50 49 48 46 45 43 43 42 41 40 39 38 37 37 36 36 36 35 35 35 35 36 35 36 36 36 37 37 37 36 35 37 38 37 36 36 36 36 36 36 36 35 35 35 35 34 34 34 34
82 80 76 71 65 65 67 70 71 69 66 62 62 61 60 60 60 61 62 63 62 59 57 56 54 53 52 51 50 49 47 45 43 41 39 39 38 37 35 34 32 31 30 29 28 28 28 28 27 27 27 27 27 27 27 28 28 28 29 29 29 29 29 30 29 30 30 30 30 30 31 31 31 31 31 31 32 32 31 31 31 31 31 31 31 30 30 30
80 77 72 68 68 70 73 75 73 68 63 61 60 59 59 60 60 60 60 58 55 52 50 49 47 45 43 40 38 36 33 31 29 28 27 26 26 26 26 25 25 26 26 26 27 27 27 27 28 28 28 29 29 29 29 29 29 30 30 30 30 30 30 31 31 31 31 32 31 31 32 33 33 33 33 33 33 33 32 32 33 33 33 32 32 32 31 31
78 75 73 72 74 75 75 75 71 64 61 59 58 58 59 60 58 55 53 51 48 45 41 38 35 32 29 27 26 24 24 23 23 23 24 24 25 25 26 27 28 28 28 29 29 29 28 28 28 28 28 28 28 28 28 28 29 29 29 29 29 29 29 29 30 29 30 30 30 30 30 30 30 31 31 30 30 30 30 30 30 29 29 29 29 29 28 28
76 76 77 77 77 74 70 67 62 58 57 56 55 56 56 54 51 48 45 42 38 32 28 26 23 22 22 22 22 22 23 24 25 26 27 27 28 28 28 29 29 28 28 28 28 28 27 28 28 28 28 28 28 28 29 28 29 29 29 29 29 29 29 28 28 28 28 28 28 28 28 28 28 28 28 28 28 27 26 26 26 26 25 25 25 24 24 23
77 77 77 76 72 67 62 58 54 54 54 52 50 49 47 44 41 37 33 28 25 22 21 21 21 22 22 23 24 25 26 27 28 28 28 28 28 28 27 27 27 28 28 28 29 29 29 30 30 30 30 30 30 30 30 30 30 30 30 30 30 29 29 29 28 28 28 28 28 27 27 28 28 28 27 27 27 26 26 25 25 24 24 23 22 22 21 20
78 74 70 67 62 58 55 54 53 52 49 46 43 41 38 35 30 25 23 21 20 21 21 22 23 24 25 26 27 28 28 29 29 28 28 28 27 28 29 29 31 32 32 33 33 33 32 32 32 31 31 30 30 30 30 30 29 29 30 30 31 31 31 30 30 30 29 29 29 29 29 30 30 30 29 29 29 28 27 26 26 25 24 24 23 22 22 21
74 67 61 56 53 52 51 51 49 45 42 40 37 33 28 24 21 20 20 21 21 22 23 24 25 26 27 28 28 28 28 28 28 28 28 29 30 31 33 34 35 35 34 34 33 33 32 32 31 30 29 29 28 28 28 29 29 29 29 30 30 31 32 32 32 31 31 30 30 30 29 29 29 29 28 28 28 27 27 26 26 25 25 24 24 23 23 22
63 56 51 49 50 50 48 46 42 39 38 34 29 24 21 20 20 21 21 22 23 24 24 25 26 27 28 28 27 26 27 28 29 30 31 33 34 35 35 35 35 34 33 32 31 29 28 27 25 25 24 24 25 25 26 27 28 28 28 28 28 27 27 27 27 26 25 24 23 23 23 22 22 23 24 25 24 24 24 23 23 23 23 23 22 21 20 18
50 47 48 49 49 46 42 40 38 35 31 26 22 20 20 21 21 22 23 23 24 25 26 27 27 27 27 26 26 26 27 29 31 32 33 34 35 35 34 33 32 30 29 27 25 23 22 21 20 20 20 21 21 22 22 23 23 22 22 22 21 20 20 20 20 21 21 21 20 21 22 21 19 20 22 22 22 21 20 20 20 19 19 19 18 17 16 14
45 47 48 46 42 39 37 36 33 28 23 20 20 20 20 22 22 23 24 24 25 26 26 26 26 26 26 26 28 29 31 32 32 32 33 34 34 33 32 30 28 26 24 23 22 21 21 20 20 21 21 21 21 21 22 21 21 20 20 21 21 21 21 22 22 25 27 27 25 24 23 20 18 20 21 20 19 18 17 17 16 16 16 15 15 15 14 14
47 46 43 39 38 37 35 31 25 21 20 20 21 21 22 23 24 24 24 25 26 26 25 25 25 26 27 30 31 32 33 33 33 34 34 33 33 31 29 27 26 25 24 23 22 23 23 23 24 24 25 25 26 27 27 26 25 25 25 26 26 26 26 25 25 26 28 30 29 26 22 18 18 21 20 19 18 17 17 16 15 15 16 16 16 16 16 15
44 41 38 37 37 34 29 24 21 20 21 22 23 23 24 24 24 24 25 26 25 25 25 26 27 29 31 33 33 33 34 34 35 34 33 32 31 29 28 27 26 25 26 26 27 28 29 31 32 32 32 32 32 32 33 32 29 27 26 26 25 24 23 22 21 20 21 23 25 23 19 16 18 19 17 16 16 15 15 15 15 16 17 18 18 18 18 18
40 38 38 38 33 27 22 20 20 22 22 23 23 23 23 24 25 25 25 25 26 26 28 29 31 33 33 34 33 33 34 34 34 33 32 31 30 29 29 28 28 29 30 32 34 35 37 37 38 39 38 37 36 37 38 36 33 30 27 25 23 21 20 19 18 17 17 17 18 18 16 14 16 16 15 15 15 15 16 16 17 19 20 21 21 21 21 20
38 39 37 31 25 21 21 21 22 22 22 23 23 23 25 25 26 26 27 28 29 29 30 32 34 34 34 34 33 34 34 33 33 33 32 32 31 31 32 32 33 34 35 37 38 40 41 41 41 41 42 41 40 41 41 39 38 37 34 29 25 23 21 20 20 19 17 17 19 21 20 17 17 19 19 19 19 20 21 21 22 23 24 24 24 23 22 21
38 35 29 23 21 21 22 22 23 23 23 24 25 26 27 27 28 29 29 30 31 31 33 34 35 35 34 34 34 34 34 34 34 34 34 34 34 34 35 35 36 37 38 39 39 40 41 43 44 43 44 45 44 45 45 44 43 42 41 39 36 33 26 21 19 17 17 19 23 29 29 22 22 26 25 24 25 25 26 25 25 26 25 25 24 23 23 22
33 27 22 21 22 22 23 23 23 24 25 26 27 28 29 29 30 31 31 32 32 34 36 36 35 34 34 34 35 35 35 35 35 36 36 36 36 36 36 37 38 39 40 41 42 42 43 44 47 48 48 48 48 49 49 49 47 44 45 46 48 47 41 32 25 20 18 18 21 30 33 27 25 29 28 26 27 27 27 27 27 28 27 27 26 26 25 25
26 22 22 22 23 23 23 24 25 26 27 28 29 30 30 31 31 31 32 33 35 36 36 35 34 34 34 35 36 36 36 37 37 37 37 37 37 38 39 39 40 41 42 43 44 45 45 45 47 48 50 50 51 51 52 52 52 50 49 52 55 57 55 49 42 33 25 21 19 25 31 28 26 29 28 27 28 29 29 30 31 31 30 29 29 28 28 27
22 22 23 23 23 24 24 25 27 27 29 30 31 30 31 31 31 32 34 35 36 36 35 34 34 35 36 36 37 38 38 38 38 38 38 38 39 40 41 42 42 43 43 44 45 46 48 49 48 48 50 52 53 55 56 56 56 55 54 55 58 61 62 59 55 48 38 28 23 24 26 24 25 27 27 28 29 29 30 31 32 32 31 30 30 29 29 28
22 23 23 24 24 24 26 27 28 29 30 31 30 30 30 30 32 34 35 36 35 35 34 35 35 36 37 38 39 39 39 39 39 39 39 39 40 41 42 43 44 45 45 46 46 47 49 51 53 52 51 53 56 57 58 59 59 59 58 56 57 61 65 65 62 59 52 39 29 27 27 23 24 26 26 27 28 27 28 29 31 31 30 30 31 30 30 30
23 24 24 24 25 26 28 29 29 30 31 30 30 30 30 31 33 35 35 35 35 35 35 35 36 38 39 39 40 40 39 40 40 41 42 43 43 44 44 44 45 47 48 49 50 50 51 52 57 59 57 56 58 60 61 62 62 62 61 58 57 59 64 67 66 65 65 55 39 33 32 27 25 26 25 25 26 26 26 28 29 29 29 29 30 30 30 30
24 25 25 26 28 28 29 30 30 31 31 30 30 30 31 33 34 35 35 35 35 36 36 37 38 39 40 40 40 40 40 41 42 43 44 45 47 48 48 48 48 49 50 51 52 52 53 53 55 60 61 59 60 63 64 64 64 63 62 60 57 57 60 65 65 65 69 68 53 40 37 32 27 26 25 25 25 25 25 27 28 28 27 28 29 29 30 30
25 26 27 28 29 29 29 30 31 31 31 31 31 32 33 34 35 36 36 36 36 36 37 38 39 40 41 41 41 42 42 43 44 45 46 48 50 51 52 52 52 52 53 54 54 55 56 56 54 57 60 58 57 60 62 62 62 62 62 61 59 56 58 63 65 64 67 72 66 53 44 38 31 28 27 27 27 26 26 29 31 30 29 30 31 30 30 30
26 27 28 29 29 30 31 31 32 32 32 32 33 33 34 36 36 37 37 37 37 38 39 41 41 42 42 42 43 45 46 46 47 48 49 50 52 53 54 55 57 57 57 57 57 57 59 61 58 57 60 61 58 58 61 61 62 63 63 63 61 58 58 61 65 65 65 71 75 68 56 46 38 32 31 32 32 30 31 34 36 35 34 35 34 33 33 32
27 28 29 30 30 31 32 32 32 32 33 34 34 35 36 37 38 38 38 40 41 43 44 44 45 45 45 46 47 49 50 50 50 51 53 54 55 55 56 57 59 61 61 61 60 60 62 65 65 61 62 66 64 62 64 65 63 63 64 65 64 61 58 60 65 66 65 68 74 75 69 60 50 41 34 35 36 35 35 39 40 38 37 36 36 34 34 35
29 30 31 31 32 32 32 33 33 34 35 35 36 36 38 39 40 41 42 44 46 47 48 48 49 49 50 50 52 53 54 55 54 54 56 56 57 58 57 58 59 61 63 64 62 63 65 68 71 70 67 68 69 66 67 69 67 65 65 66 68 66 60 60 65 67 66 67 70 74 76 73 66 56 43 36 37 36 37 41 41 38 37 36 36 37 38 40
31 32 32 32 33 33 33 34 34 35 36 36 37 38 39 41 42 43 45 47 48 48 49 50 51 51 52 53 54 55 56 56 56 56 57 58 58 59 59 59 60 61 63 65 64 65 68 70 75 76 72 71 73 70 68 71 71 69 68 67 71 72 66 60 64 69 68 67 68 71 75 78 78 75 62 46 38 35 36 41 42 40 39 38 38 40 41 41
32 33 33 34 34 34 35 36 36 37 37 37 38 39 40 42 43 44 45 47 47 48 49 50 51 52 53 54 54 55 56 55 55 56 57 59 59 60 61 62 62 63 64 65 65 66 69 71 75 78 76 73 74 73 69 71 73 72 71 70 72 77 75 64 63 70 71 69 69 70 72 78 82 86 82 67 50 37 34 39 42 41 42 41 40 40 40 40
34 34 35 35 35 36 37 37 38 38 38 38 40 40 41 43 43 44 45 46 47 48 49 50 51 52 54 55 56 57 56 55 56 57 59 60 62 63 65 66 65 65 66 67 67 66 70 73 75 78 80 77 75 75 71 70 74 74 73 74 74 79 83 72 63 69 74 71 72 72 73 76 79 84 92 90 73 50 35 37 41 42 43 43 41 39 38 37
35 36 36 36 37 38 39 39 39 40 40 41 42 43 43 44 44 45 46 47 48 49 50 52 53 54 56 58 59 59 58 57 58 60 61 62 64 66 68 69 68 66 67 69 69 70 73 75 74 76 81 80 76 77 75 71 74 77 77 78 77 79 87 83 68 68 76 75 74 76 75 74 75 78 87 98 94 71 45 37 39 41 42 43 41 39 38 37
Wind_Speed
40 37 35 34 33 33 33 35 35 36 35 35 35 35 35 36 36 36 36 37 38 39 40 41 41 41 41 42 42 43 43 43 43 43 44 45 45 45 46 46 47 47 48 49 51 52 53 54 55 55 56 57 58 59 60 60 61 62 63 65 67 68 68 67 68 70 71 71 72 73 74 76 77 78 79 80 80 81 82 82 83 84 84 84 85 85 87 89
42 41 39 36 34 34 35 36 37 38 38 38 37 37 37 37 37 37 37 37 37 38 39 41 42 42 43 44 45 45 46 46 46 46 47 48 48 49 49 50 50 51 51 51 52 53 54 55 56 57 58 59 60 61 62 62 63 64 65 68 69 69 68 68 69 70 71 72 73 74 75 76 78 79 79 81 82 83 84 85 85 86 86 87 87 88 89 90
45 44 42 40 38 37 36 37 39 40 40 40 40 40 40 40 40 40 40 39 39 39 40 41 42 43 44 45 45 46 46 47 47 48 49 49 50 51 52 52 53 54 54 55 55 56 56 58 58 59 60 61 62 63 64 64 65 66 68 70 71 70 70 70 71 72 73 75 75 75 76 77 78 79 80 81 83 84 85 86 87 88 89 89 90 91 92 93
47 46 45 44 43 42 41 40 40 41 42 42 42 42 42 43 43 43 43 43 43 43 43 44 44 45 46 47 47 47 48 48 49 49 50 50 51 52 53 53 54 55 56 57 57 58 59 60 61 62 63 63 64 66 66 67 67 69 71 72 72 72 72 72 73 75 77 78 78 78 79 79 80 81 82 83 85 86 87 88 89 90 92 93 94 94 95 96
49 48 48 48 47 47 47 45 44 44 44 43 43 43 44 45 45 46 46 46 46 46 47 47 48 49 50 50 50 50 51 51 52 53 54 54 54 55 56 56 57 58 58 59 60 60 61 62 63 64 65 65 66 67 68 69 70 71 73 74 74 74 74 75 76 77 79 80 81 81 81 82 83 83 85 86 88 88 89 91 92 93 95 96 97 98 98 99
50 50 50 51 51 51 51 50 50 49 48 47 47 47 47 47 48 48 48 49 49 50 50 50 51 52 53 54 54 54 54 54 55 55 57 57 58 58 59 59 59 60 61 61 62 63 64 65 66 67 68 68 69 70 71 71 72 74 75 76 76 77 77 77 78 79 81 82 83 84 84 84 85 86 87 88 89 90 91 93 94 96 97 98 99 100 101 101
48 50 50 51 52 53 53 53 53 53 53 53 53 53 53 53 52 52 52 52 52 52 53 53 54 55 55 56 57 58 58 58 58 58 59 59 60 60 61 61 61 61 62 63 63 64 65 66 68 69 70 70 71 72 73 74 75 77 78 79 79 80 80 80 81 82 83 84 86 87 87 87 87 88 89 90 91 92 94 95 97 98 99 100 101 102 103 103
44 47 49 50 51 53 54 54 54 54 55 55 55 56 56 56 56 55 55 55 54 54 54 55 55 56 56 57 59 60 60 61 61 61 62 62 62 62 63 63 64 64 64 65 65 65 66 67 68 69 69 70 71 72 73 75 76 77 79 80 81 82 82 82 82 83 85 87 88 89 89 89 89 90 91 92 94 96 97 98 99 100 101 102 103 104 105 106
39 42 44 46 48 50 52 54 55 56 56 55 55 55 55 55 55 55 55 56 56 56 56 56 56 56 57 58 59 60 61 62 62 63 63 64 64 64 65 65 66 66 66 67 67 67 68 69 70 71 71 72 73 73 74 76 77 78 80 82 82 83 83 83 84 85 87 88 89 91 91 90 90 91 92 95 97 98 100 101 102 103 104 105 106 108 109 110
34 37 39 41 43 45 47 50 52 53 55 56 56 56 56 55 55 55 55 54 54 54 55 55 55 56 56 58 58 59 60 61 62 63 63 63 64 65 65 66 67 67 68 68 69 70 71 72 73 74 75 77 77 78 79 81 82 83 84 86 87 87 86 86 87 88 90 91 93 94 94 93 94 95 97 99 101 103 104 105 106 107 108 109 111 112 113 114
30 32 34 36 38 40 42 44 46 47 49 51 52 54 54 55 56 56 56 56 57 57 57 57 57 57 57 58 58 59 60 61 61 62 62 63 63 64 65 65 66 67 68 69 69 71 72 73 75 76 77 79 80 82 84 85 86 87 89 90 91 91 91 90 91 93 95 96 97 98 98 98 99 100 102 104 105 107 108 109 110 111 111 113 114 115 116 116
27 28 30 32 33 35 37 39 40 42 43 45 46 48 49 50 51 53 54 55 57 58 59 60 61 61 61 62 62 63 64 64 65 65 66 66 66 67 67 68 68 69 70 70 71 72 73 75 76 77 78 79 81 83 84 86 87 88 90 92 93 93 92 92 94 95 97 98 99 100 100 100 101 103 104 105 106 107 108 110 111 112 113 114 115 116 117 117
24 25 27 28 30 31 33 35 36 38 39 41 42 44 45 46 47 48 50 51 53 54 55 56 58 59 60 62 63 64 65 66 67 68 69 69 70 70 71 71 72 72 73 74 74 75 76 77 78 79 80 81 83 84 85 87 88 89 91 93 94 94 94 94 95 97 98 98 99 100 101 100 102 104 105 105 107 108 109 111 112 113 114 116 117 117 118 119
21 23 24 26 27 29 31 32 34 35 37 38 40 41 42 44 45 46 47 49 50 51 52 53 54 55 56 57 58 59 60 61 62 63 64 65 66 67 68 69 70 71 72 72 73 74 76 76 77 77 79 80 81 83 84 85 87 88 90 92 93 94 94 95 96 97 98 99 100 101 100 100 101 103 104 105 106 107 109 110 112 113 115 116 117 118 118 119
20 21 23 24 26 27 29 30 31 33 34 36 37 38 40 41 42 43 44 46 47 48 49 50 51 52 52 53 54 55 56 57 58 59 60 61 62 63 65 66 67 68 69 70 71 72 73 74 74 75 76 77 79 81 82 83 84 86 87 89 90 91 92 93 94 95 96 97 98 99 98 98 98 100 101 102 103 105 106 108 110 112 113 114 115 115 116 117
20 21 22 23 24 25 26 28 29 30 32 33 34 36 37 38 39 40 41 43 44 46 47 47 48 50 50 51 53 54 55 56 57 59 60 61 62 64 65 66 67 67 68 69 71 72 73 73 74 75 76 77 79 80 81 82 83 85 87 88 89 89 90 91 93 94 94 95 96 96 97 96 97 98 99 100 102 104 106 108 109 110 111 112 113 114 114 115
19 20 21 22 23 24 25 26 27 29 30 31 32 34 35 36 37 38 39 41 43 44 45 46 47 49 50 52 53 54 56 57 58 59 60 62 63 64 65 66 67 68 68 69 70 71 72 72 73 74 75 77 78 79 80 81 82 84 85 87 87 88 89 90 91 92 92 93 93 94 95 95 95 96 97 99 101 103 105 106 108 109 110 111 111 112 113 113
18 19 20 21 22 23 24 25 26 28 29 30 31 32 34 35 36 37 38 40 41 43 44 45 47 48 50 51 53 54 55 57 58 59 60 60 62 63 64 65 65 66 67 68 69 69 70 71 72 73 74 76 77 78 79 81 82 83 84 85 86 87 88 89 90 90 91 91 92 92 93 94 94 95 96 98 100 102 104 106 108 109 110 110 111 112 113 113
19 20 21 22 23 24 24 26 27 28 29 30 32 33 34 36 37 38 39 40 41 42 44 45 46 48 49 51 52 54 55 56 57 58 59 60 61 62 63 64 65 66 67 68 69 70 71 72 73 74 75 76 77 78 80 81 83 84 85 86 87 88 88 89 90 91 92 92 93 94 95 95 95 96 98 99 101 103 105 107 109 110 111 111 112 113 114 115
20 21 22 23 24 25 26 28 29 30 31 32 34 35 36 38 39 40 41 42 43 44 45 46 48 49 50 52 53 55 56 57 58 58 59 60 61 63 64 65 66 67 68 69 70 71 72 73 74 75 76 77 78 79 81 82 83 85 86 87 88 89 90 91 92 93 93 93 94 94 95 95 96 98 99 100 102 103 105 107 109 110 111 111 112 114 115 116
21 22 24 25 26 28 29 30 32 33 34 35 36 36 38 39 40 41 42 43 44 45 47 48 49 50 51 53 54 55 56 57 58 59 60 60 62 64 65 66 67 68 68 69 71 72 73 74 75 76 76 77 78 79 80 81 82 84 85 86 87 89 89 90 92 93 93 93 94 94 94 95 96 97 98 99 100 102 104 105 107 107 108 109 111 112 113 114
23 24 26 27 29 31 32 33 34 35 36 37 38 39 39 40 41 43 44 45 46 47 48 49 50 51 52 53 53 54 56 57 58 59 59 60 61 62 64 64 65 66 66 67 68 69 70 71 72 73 74 75 75 76 78 79 80 81 82 83 85 86 87 88 89 91 92 92 93 93 94 95 96 97 98 99 100 101 103 104 105 106 107 108 110 111 112 113
26 27 29 30 32 33 34 36 37 38 39 39 40 41 41 42 43 44 45 46 47 48 49 50 51 51 52 53 53 54 55 55 56 57 57 57 58 59 60 61 61 62 63 63 64 65 66 67 68 69 70 71 72 73 74 76 77 78 79 80 82 83 84 85 86 87 89 90 90 90 92 93 95 95 96 97 98 100 101 102 103 104 105 107 108 109 110 111
29 30 32 33 34 35 36 38 39 40 41 41 42 43 43 44 45 46 47 48 49 49 50 50 51 51 51 51 52 52 53 53 53 53 54 54 54 55 56 56 57 58 58 58 59 60 61 62 63 64 65 67 68 69 70 71 72 74 75 77 78 79 80 82 83 84 85 86 87 87 88 90 91 91 92 93 95 96 97 98 100 101 102 103 104 106 107 108
32 33 34 35 36 37 38 40 41 42 42 43 43 44 45 46 47 47 48 49 49 49 49 49 49 49 49 49 49 50 50 50 49 49 49 49 49 50 51 51 52 53 53 54 55 56 57 58 59 60 62 63 65 66 67 68 70 71 73 74 75 77 78 79 80 81 82 83 84 85 86 87 89 90 90 92 93 94 96 97 98 99 101 102 103 104 106 107
34 35 36 37 38 39 40 41 42 43 43 44 44 45 46 47 48 48 48 48 48 48 47 47 46 46 46 45 45 45 46 46 45 45 45 46 46 46 47 47 48 49 50 51 53 54 55 56 57 59 60 62 63 65 66 67 68 70 72 73 74 76 77 78 79 80 81 82 83 85 85 87 88 89 91 92 93 94 95 96 98 99 100 101 103 104 105 106
35 36 38 39 40 41 42 42 42 43 44 45 45 46 46 47 47 47 46 46 45 45 44 44 43 43 42 42 42 42 42 43 42 42 42 43 43 44 44 45 46 47 48 49 50 52 53 54 56 57 58 59 61 62 64 65 66 67 69 70 71 73 74 75 76 77 78 79 80 82 83 84 85 87 88 90 91 91 92 93 94 96 97 98 99 100 101 102
37 38 38 40 41 42 42 43 43 44 44 45 45 45 45 45 44 44 43 42 42 42 41 41 41 40 40 39 39 39 39 40 39 39 40 40 41 41 42 43 44 45 47 48 49 50 51 52 53 54 56 57 58 59 61 62 63 64 65 66 67 68 70 71 72 73 73 75 76 77 78 79 81 82 84 85 86 87 88 89 90 91 92 93 94 95 96 97
37 38 39 40 41 42 42 43 43 44 45 45 44 43 43 42 41 41 40 40 39 39 39 38 38 38 37 36 36 36 36 37 37 38 38 39 40 41 41 42 43 44 45 46 47 48 49 50 51 52 53 54 55 56 57 58 59 60 61 62 63 64 65 66 67 68 69 70 71 72 73 74 75 77 79 80 81 82 83 84 85 86 87 88 89 90 90 91
37 38 39 40 40 41 42 42 43 43 44 43 42 41 40 39 39 38 38 38 37 37 36 35 35 34 34 33 33 33 33 35 36 36 37 38 39 39 40 41 41 42 43 44 45 46 47 48 49 50 50 51 52 52 53 54 55 56 57 57 58 59 60 62 63 64 65 65 66 67 68 69 69 71 72 74 75 76 77 79 80 81 82 82 83 84 85 86
38 38 39 39 40 41 41 42 43 42 42 41 40 39 38 37 37 36 35 35 35 34 34 33 32 32 31 31 31 31 31 32 34 35 36 37 37 37 38 39 40 41 42 43 44 44 45 45 46 46 46 47 47 48 49 49 50 51 52 53 54 54 55 56 58 59 60 61 61 62 64 65 65 66 68 69 71 72 73 74 75 75 76 78 78 79 80 81
37 37 38 39 39 40 41 41 41 40 39 38 37 37 35 35 34 33 33 33 32 31 31 30 30 30 30 30 31 31 31 31 32 33 34 35 36 37 38 38 39 40 40 41 42 42 42 42 42 42 42 42 42 43 44 44 45 46 47 49 50 51 52 53 54 56 59 60 60 61 62 63 63 64 65 67 68 68 69 70 71 71 73 74 75 76 78 79
36 37 38 38 39 40 39 39 38 37 36 36 35 34 34 33 32 32 31 30 29 29 28 28 28 29 29 30 31 31 32 32 32 33 33 35 36 37 38 38 38 39 39 39 39 39 39 39 39 39 39 40 40 41 42 42 43 44 46 47 49 50 51 52 53 55 57 60 61 61 61 61 62 63 64 65 66 66 67 68 68 69 71 72 73 74 76 77
36 37 37 38 39 38 37 36 35 35 34 33 33 32 32 31 30 29 29 28 28 27 27 27 27 28 29 29 30 31 32 32 33 33 34 35 36 37 37 38 38 38 38 38 38 38 38 38 39 39 39 40 40 41 42 42 42 42 43 44 45 47 48 49 50 51 53 56 59 61 61 60 61 63 63 64 66 66 66 67 67 66 67 69 69 70 72 73
36 37 37 38 37 36 35 34 33 33 32 31 31 30 30 29 28 27 27 27 27 27 27 27 27 27 28 28 29 30 31 31 32 33 34 35 36 36 37 37 37 37 38 38 38 38 39 39 39 39 39 39 39 40 40 41 41 41 41 42 43 44 45 47 48 49 50 52 56 59 60 60 60 61 62 63 63 63 63 64 63 62 63 64 65 67 69 70
36 36 37 36 34 33 32 31 31 30 30 29 28 28 28 27 27 26 26 26 26 27 27 27 27 27 28 28 29 29 30 30 31 32 33 34 35 36 36 37 37 37 38 38 38 39 39 39 39 39 40 39 39 40 40 40 41 42 42 41 42 42 43 44 46 47 48 49 51 54 57 57 56 56 58 58 58 58 58 59 59 58 59 61 63 65 67 69
35 35 34 32 31 30 30 30 29 28 28 27 27 27 27 27 26 26 26 27 26 26 26 26 27 27 27 28 28 29 30 31 32 33 34 35 35 36 36 36 37 37 37 37 37 38 39 39 40 41 42 42 43 43 43 43 43 44 45 44 43 43 43 43 43 45 46 46 47 49 53 53 51 51 53 54 54 53 54 55 55 56 58 60 62 64 66 67
33 32 30 29 29 29 28 28 27 27 27 27 27 26 26 26 26 27 27 27 26 26 26 26 26 26 27 27 28 30 31 32 33 34 35 35 35 35 35 35 36 36 36 37 37 38 39 41 42 43 45 46 47 48 48 48 47 47 48 48 47 46 45 43 43 44 44 43 42 44 50 52 48 48 50 50 51 51 51 53 54 55 57 59 61 63 64 65
30 29 28 27 27 26 26 26 26 26 27 26 26 26 26 26 26 26 26 26 25 25 25 25 25 26 27 28 29 31 32 33 34 34 35 34 34 34 35 35 36 37 38 39 40 41 41 42 44 45 47 48 49 51 52 52 52 52 52 53 53 52 50 49 48 48 46 44 41 41 48 51 47 46 48 48 49 49 50 52 53 55 56 57 59 61 62 63
27 26 26 26 25 25 25 25 25 26 26 26 26 26 26 26 26 25 25 24 24 23 23 24 25 26 27 29 30 31 32 33 33 33 34 34 34 35 36 37 38 39 40 41 42 43 44 45 45 46 47 48 49 51 53 54 55 55 56 57 57 57 56 55 54 54 51 48 45 42 46 50 47 47 49 49 49 49 50 51 53 54 56 57 58 60 61 62
25 24 24 24 24 24 24 25 25 26 26 26 26 26 25 25 25 24 23 23 22 22 23 24 25 26 28 29 30 31 32 32 32 33 33 34 35 36 37 38 39 40 41 42 43 44 45 46 47 48 49 50 51 53 54 56 57 58 58 58 59 59 59 59 58 58 56 54 50 48 48 50 49 49 50 50 51 51 51 52 53 54 56 57 58 60 61 62
23 23 23 23 23 24 25 25 25 25 25 25 25 25 25 24 23 22 22 22 22 22 23 24 26 27 28 29 30 31 31 32 32 33 34 35 36 37 38 39 40 41 42 43 44 45 46 48 49 50 51 51 52 54 55 57 58 59 60 60 60 60 61 61 61 61 60 58 55 53 53 53 51 51 52 52 52 53 52 53 55 56 57 58 59 61 62 63
22 22 22 22 23 24 24 24 24 24 24 24 24 24 23 22 22 21 21 21 22 23 24 25 27 27 28 29 30 31 32 33 33 34 36 37 37 38 39 40 41 42 43 44 45 46 47 47 49 51 53 54 55 56 57 58 59 60 61 62 62 62 63 64 64 64 64 63 60 57 58 57 55 53 54 54 54 55 55 56 57 58 59 60 61 62 63 64
21 21 22 22 23 23 23 23 23 24 24 24 23 23 22 21 21 21 21 22 23 24 25 26 27 28 29 30 31 32 33 34 35 36 37 37 38 39 39 40 41 42 43 44 45 46 46 47 47 49 51 53 54 55 56 57 59 60 61 63 63 63 64 65 67 67 67 67 65 61 60 61 60 57 57 56 56 57 57 57 59 60 61 61 62 63 63 64
20 21 22 22 23 23 23 23 23 23 23 23 22 22 21 21 21 22 22 23 24 25 26 27 28 29 30 31 32 33 34 35 36 37 37 38 39 40 40 41 41 42 43 44 45 46 47 48 48 48 50 51 52 53 55 56 58 60 62 63 64 65 65 66 67 68 68 70 70 66 63 63 64 62 61 61 60 60 60 60 61 62 63 63 63 63 63 64
20 21 21 22 22 23 23 23 23 22 22 22 22 21 21 21 22 22 23 24 25 27 28 28 29 30 31 32 33 34 35 36 37 37 38 39 40 41 41 42 42 43 44 45 46 46 47 49 50 50 51 53 54 55 56 58 59 60 62 63 65 66 67 67 68 69 70 71 72 72 69 66 66 66 65 65 65 64 64 64 64 65 65 65 65 65 64 65
20 21 21 22 22 23 23 22 22 22 22 22 21 21 22 22 23 23 24 25 27 28 29 30 30 31 32 33 34 35 36 37 38 38 39 40 40 41 42 42 43 43 45 45 46 47 48 49 51 52 53 54 56 57 58 60 61 62 63 64 66 67 68 68 69 70 71 72 73 74 74 71 70 69 69 68 67 67 66 66 66 67 67 67 67 66 66 66
21 21 22 22 22 22 22 22 22 22 21 21 21 22 22 23 23 25 26 27 28 29 30 30 31 32 33 34 35 36 37 38 39 40 40 40 40 41 42 43 44 44 45 46 47 48 49 50 52 54 54 54 56 58 60 61 63 64 64 65 67 68 69 70 70 72 73 73 74 75 76 76 74 73 72 71 70 69 67 67 67 68 68 68 68 68 68 67
21 21 21 21 22 22 22 22 22 21 21 21 22 22 23 24 25 26 27 28 29 30 31 31 32 33 34 35 36 37 38 39 40 40 40 40 40 41 42 43 44 45 46 47 48 49 49 50 52 53 54 55 57 59 60 62 63 65 66 66 67 69 71 71 71 72 74 75 75 76 77 79 79 78 77 75 73 71 69 68 69 69 70 70 70 70 69 68
20 20 21 21 21 21 21 21 21 21 22 22 22 23 24 25 26 27 28 29 30 31 31 32 33 34 35 36 37 37 38 39 40 41 41 41 41 41 42 43 44 45 46 47 48 49 49 50 51 53 54 55 57 59 60 62 63 65 67 67 68 70 72 73 72 73 75 76 77 78 78 79 80 81 81 79 77 75 72 70 71 71 71 71 71 70 70 69
20 20 21 21 21 21 21 21 21 22 22 23 23 24 25 26 27 28 29 30 31 31 32 33 34 35 36 36 37 38 39 40 41 41 41 41 41 42 42 43 44 45 46 47 48 48 49 50 51 52 54 55 57 59 61 61 63 65 66 68 69 70 72 74 74 74 75 77 78 79 80 80 80 82 83 83 82 79 75 73 73 73 72 72 72 71 71 71
20 20 21 21 21 21 21 21 21 22 23 23 24 25 26 27 28 29 30 31 31 32 33 33 34 35 36 37 38 38 39 40 41 42 42 42 42 42 43 43 44 45 46 47 48 48 49 50 50 51 54 56 58 60 61 62 63 65 67 68 69 70 72 75 76 75 76 78 79 80 81 82 82 82 84 86 86 84 80 77 76 75 74 74 73 73 73 73
Wind_Direction
235 236 239 245 248 247 245 244 245 246 248 251 253 255 256 257 258 259 259 259 258 256 254 253 253 253 254 256 257 258 258 258 258 258 259 259 259 260 260 259 259 258 258 258 258 258 258 257 257 257 257 257 257 257 257 257 257 257 258 258 259 259 259 259 259 259 259 259 259 259 259 259 260 260 260 260 261 261 261 261 261 262 262 262 262 262 262 262
235 236 236 238 244 248 247 248 249 251 253 255 257 257 258 259 259 259 259 259 259 259 257 256 256 255 255 256 257 259 260 260 260 260 261 261 261 261 261 261 261 260 260 260 260 260 260 260 260 260 260 260 260 260 260 259 259 259 259 259 260 260 261 261 261 261 261 261 260 260 261 261 262 262 262 263 263 263 263 263 263 263 264 264 263 263 263 263
235 236 236 235 238 242 245 246 249 252 255 257 259 260 260 261 263 263 262 262 261 261 260 259 259 258 257 257 258 258 259 260 261 261 262 262 262 262 262 262 262 262 262 262 261 261 261 261 261 261 261 261 262 262 262 261 261 261 261 261 261 261 262 262 262 262 262 261 261 261 261 262 262 263 263 264 264 264 264 264 264 264 264 264 264 264 264 264
236 237 237 237 237 238 241 244 247 249 252 254 256 258 260 261 263 264 265 265 265 265 264 264 263 263 261 260 260 260 260 260 260 260 261 261 262 263 263 263 263 263 263 263 263 263 263 263 263 263 262 263 263 263 264 264 264 263 263 262 262 263 263 263 263 263 263 263 262 262 262 262 262 263 264 264 265 265 265 265 265 265 265 265 265 265 265 265
238 238 238 239 240 240 241 243 245 247 250 252 253 255 257 259 261 262 263 264 265 266 266 266 267 268 267 266 265 264 263 262 262 262 262 262 263 263 264 264 264 264 264 264 264 264 263 264 264 264 264 264 264 264 265 265 265 265 265 264 264 264 263 263 263 264 264 264 264 264 263 263 263 264 264 265 266 266 267 267 266 266 266 266 266 266 265 266
239 240 241 241 242 243 244 244 246 247 249 250 251 253 255 257 259 261 262 263 264 265 265 266 266 268 269 270 270 269 267 266 265 265 265 265 265 265 265 266 265 265 265 264 264 264 264 264 264 264 264 264 264 265 265 265 265 265 265 266 265 265 264 264 264 264 264 265 265 265 264 264 264 265 265 265 266 266 266 267 267 267 267 267 267 267 267 267
241 242 243 243 244 245 246 247 248 249 250 251 252 253 255 256 258 259 261 262 263 264 265 265 266 266 267 268 269 270 270 270 269 268 268 268 268 268 268 268 267 267 267 266 266 265 265 265 264 264 264 264 264 264 265 265 265 265 265 266 266 266 265 265 265 265 265 265 265 265 265 265 265 265 265 265 266 266 266 266 266 267 267 268 268 268 268 268
243 244 245 246 246 246 247 248 250 251 252 253 254 255 256 257 258 259 260 261 261 262 263 264 265 265 265 266 267 267 268 269 269 270 269 269 269 269 269 269 269 268 268 268 268 268 267 266 266 266 266 266 265 265 265 265 265 266 266 266 266 266 266 266 266 266 266 266 266 266 266 266 266 266 266 267 266 266 266 266 266 267 267 268 269 269 269 269
246 247 248 249 249 249 250 250 251 253 254 256 257 258 258 259 260 260 261 261 262 262 263 263 264 264 265 265 266 266 267 267 267 268 268 268 268 268 268 268 268 268 267 267 267 267 266 266 266 265 265 265 265 265 265 265 265 266 266 267 267 267 267 267 268 268 267 267 267 267 267 267 268 268 268 268 267 267 267 267 267 267 268 269 269 269 270 270
248 249 250 251 251 252 253 253 254 254 255 257 258 259 260 260 261 261 262 261 262 262 262 262 263 263 263 263 264 265 266 266 267 267 267 268 268 268 268 268 268 267 267 267 267 266 266 265 265 265 264 264 264 264 264 264 265 265 265 266 267 267 267 268 268 268 268 268 268 268 268 269 269 269 269 268 268 268 268 268 268 269 269 269 269 269 269 269
251 252 252 253 253 254 255 255 256 257 258 259 260 260 261 262 262 262 262 262 261 261 261 261 261 261 261 262 262 263 264 265 265 266 266 267 267 267 268 268 268 268 268 268 268 267 267 267 266 266 266 266 266 266 265 265 265 266 266 266 266 267 267 268 268 268 268 268 268 268 269 269 269 269 269 269 269 269 269 269 270 270 270 269 269 269 269 269
255 255 255 256 256 256 257 258 258 259 260 261 262 262 263 263 264 264 264 264 264 263 263 263 263 263 263 263 263 263 264 265 266 267 267 267 268 268 268 268 268 268 268 268 267 267 267 267 267 267 267 267 267 267 267 267 267 267 267 267 267 267 267 268 268 268 269 269 269 269 269 269 269 269 269 270 270 270 270 270 270 270 270 270 270 270 270 270
261 261 261 261 261 261 261 261 261 262 262 263 263 264 264 264 265 265 265 266 266 266 266 266 266 266 266 266 266 266 266 267 267 268 269 269 269 270 269 269 269 269 269 269 269 268 268 268 267 267 267 267 267 267 267 267 268 268 267 268 268 267 267 267 267 268 268 269 269 269 269 270 270 270 270 270 270 270 270 270 270 270 270 270 269 269 269 269
267 267 267 266 266 266 266 265 265 265 266 266 266 267 267 267 267 268 268 268 268 269 269 269 269 270 269 269 269 269 269 269 269 269 270 270 270 270 271 271 271 271 271 271 271 270 270 269 269 269 269 269 269 269 269 269 269 269 269 268 269 269 268 268 267 267 267 268 268 268 269 269 270 270 271 271 271 271 271 271 270 270 270 269 269 269 269 269
274 273 272 271 271 270 270 270 269 269 269 269 269 270 270 270 270 270 270 270 271 271 271 271 271 271 270 270 270 270 270 270 270 270 270 270 270 270 270 271 271 271 271 271 271 271 271 271 271 271 271 271 270 270 270 270 270 270 270 270 270 271 271 270 270 269 269 269 269 269 270 270 270 271 271 272 272 272 272 271 271 271 271 271 271 270 270 270
279 277 276 275 274 274 274 274 273 272 273 272 273 273 272 272 272 272 272 272 272 272 272 272 272 272 271 271 271 271 271 271 270 270 270 271 271 272 272 272 272 272 272 272 272 272 273 272 272 272 272 272 271 271 271 272 272 272 272 272 272 272 272 272 272 272 271 271 271 272 272 272 272 272 272 273 273 273 273 273 272 272 272 272 272 272 272 272
280 279 277 277 276 276 276 276 276 276 276 276 276 275 275 275 275 274 274 274 274 274 274 274 274 274 273 273 273 273 273 273 273 273 274 274 275 275 275 275 275 275 275 275 275 275 275 275 275 274 274 274 274 274 274 274 274 273 273 274 274 274 274 273 273 273 273 273 273 273 273 273 273 273 273 273 273 273 274 274 274 274 273 273 273 273 273 273
281 281 280 280 279 279 279 279 279 280 280 280 279 279 280 280 280 280 279 279 279 279 279 279 279 278 278 278 278 278 278 278 278 278 279 279 279 279 279 279 278 278 278 278 278 277 277 277 277 277 277 277 277 277 277 276 276 276 276 276 275 275 275 275 275 275 275 275 274 274 274 274 273 273 273 273 273 273 274 274 274 274 274 274 274 274 274 274
285 285 285 285 285 285 285 285 286 286 286 286 286 286 287 287 287 287 286 285 285 285 285 284 284 284 283 283 283 282 282 282 282 282 282 282 282 281 281 281 281 280 280 280 279 279 279 279 278 278 278 278 278 278 277 277 277 277 277 277 277 276 276 276 276 276 275 275 275 274 274 274 274 274 273 273 273 273 274 274 274 274 274 275 275 275 275 275
290 290 290 289 289 290 290 290 290 290 291 292 292 292 293 292 292 292 291 290 290 289 289 288 288 287 287 286 286 286 285 285 285 284 284 284 283 283 283 282 282 282 281 281 281 281 281 280 280 280 279 279 279 278 278 278 278 278 278 277 277 277 277 277 277 277 276 276 275 275 275 275 274 274 274 273 273 273 273 273 274 274 274 274 274 275 275 275
291 291 291 290 290 291 292 292 293 294 295 296 296 296 295 295 295 294 294 294 293 293 292 291 291 290 289 288 288 287 287 286 286 285 285 284 284 283 283 283 283 282 282 282 282 282 282 281 281 281 281 280 280 279 279 278 278 278 278 277 277 277 277 277 277 277 277 277 277 277 277 276 276 276 275 275 274 274 274 274 274 274 274 274 274 274 274 274
291 291 291 291 291 292 294 295 297 298 299 299 299 299 298 298 297 297 297 297 296 296 295 294 293 292 291 290 289 288 288 287 287 287 286 286 285 285 285 285 284 284 284 284 283 283 283 282 282 282 282 281 281 281 280 280 279 279 279 278 278 278 277 277 277 277 277 277 277 277 277 277 277 276 276 276 276 275 275 275 275 275 275 274 274 274 274 274
292 292 292 292 293 295 297 299 300 301 301 301 301 301 301 301 301 301 301 300 299 298 298 296 295 294 293 292 292 291 290 290 289 289 289 288 288 288 287 287 287 287 286 286 286 285 285 284 284 283 283 283 282 282 281 281 281 280 280 280 279 279 279 279 278 278 278 278 278 278 278 277 277 277 277 276 276 276 276 276 276 275 275 275 275 275 275 274
292 292 293 295 297 299 300 301 301 301 302 303 303 304 304 305 304 304 303 302 301 300 299 298 297 296 296 295 295 294 293 293 292 292 292 291 291 290 290 289 289 289 288 288 287 286 286 285 285 285 284 284 283 283 282 282 281 281 281 280 280 280 279 279 279 279 279 279 279 279 278 278 278 278 277 277 277 277 276 276 276 276 276 276 276 276 276 276
293 295 296 298 300 301 302 302 302 303 304 305 306 306 307 307 306 305 304 303 302 302 301 300 299 299 298 298 297 296 296 295 295 295 294 294 293 293 292 292 292 291 291 290 290 289 289 288 288 287 287 286 286 285 284 284 283 282 282 281 281 280 280 280 279 279 279 279 279 279 278 278 278 278 278 277 277 277 277 277 277 277 277 277 277 277 277 277
295 297 299 301 301 301 301 302 303 305 306 307 308 308 308 307 306 305 305 304 304 303 302 302 301 300 300 300 299 299 299 298 298 298 297 297 296 296 295 295 295 294 294 293 293 292 292 291 290 289 289 288 287 286 286 285 284 283 283 282 282 281 281 281 280 280 280 279 279 279 279 278 279 278 278 278 277 277 277 277 277 277 277 277 277 277 277 277
296 298 299 300 300 301 302 303 305 307 308 309 309 308 308 307 306 306 306 306 305 305 305 304 304 303 303 303 302 302 301 301 301 301 300 300 299 299 299 298 298 297 297 296 296 295 294 294 293 292 291 290 289 288 287 287 286 285 285 284 284 283 283 282 282 282 281 281 281 280 280 280 280 280 280 280 279 279 279 279 279 279 279 279 279 279 279 279
298 299 299 299 300 302 304 307 309 310 309 309 309 309 309 308 308 308 308 307 307 307 307 307 306 306 306 306 305 305 304 304 304 304 303 303 303 303 302 302 302 301 301 300 300 299 298 297 296 295 293 292 292 291 290 289 288 288 287 287 286 286 285 285 284 284 284 283 283 283 282 282 282 282 282 282 282 282 282 282 282 281 281 281 281 281 281 280
298 298 299 300 302 305 308 310 310 310 310 310 310 311 311 310 310 310 310 310 309 309 308 308 308 308 308 308 308 308 308 307 308 308 308 307 307 307 307 307 306 305 305 304 303 302 301 300 299 297 296 295 294 293 292 291 291 290 289 289 288 288 288 287 287 286 286 285 285 285 284 284 283 283 283 283 283 283 283 283 284 284 284 283 283 283 283 283
298 299 302 304 307 309 310 311 311 311 312 312 313 313 313 312 312 312 312 311 310 310 309 309 310 310 310 310 311 311 312 311 311 311 311 311 311 311 310 309 309 308 308 307 306 305 304 303 302 301 300 299 298 297 296 295 295 294 293 292 291 290 290 289 288 288 287 286 285 284 284 283 283 283 284 284 284 285 285 285 286 286 286 286 286 286 285 285
300 304 307 310 311 311 311 312 313 314 314 314 315 315 315 314 313 313 312 312 311 311 312 312 312 313 313 313 314 314 314 314 314 314 314 314 313 313 313 313 312 312 311 310 308 307 306 305 305 304 304 303 303 302 301 300 299 298 297 295 294 293 292 291 291 290 290 289 288 288 288 287 287 288 289 289 288 288 288 289 289 289 289 289 289 289 289 288
306 309 311 312 311 312 313 314 315 316 316 316 316 315 315 314 314 314 314 313 313 314 315 315 316 316 317 317 317 318 318 318 317 317 317 317 317 317 317 316 315 314 314 313 313 313 313 312 312 311 310 309 308 307 307 306 306 305 304 304 303 303 302 301 301 301 300 299 297 296 295 295 295 294 293 292 292 292 292 292 292 292 293 293 293 293 292 292
311 312 312 312 313 314 316 316 317 317 316 316 316 316 316 317 316 316 316 316 317 317 318 319 319 319 320 321 321 322 322 322 321 321 321 322 322 322 322 322 321 322 322 323 323 323 323 323 322 322 322 321 320 320 319 318 318 317 316 315 314 313 311 309 308 307 305 302 301 299 298 299 298 297 296 296 296 296 296 296 296 296 296 295 295 295 294 294
312 312 313 315 316 317 318 318 318 317 317 317 318 318 319 318 318 319 320 321 321 321 321 321 322 323 324 324 325 325 326 326 327 328 328 328 328 328 329 329 330 332 333 333 333 334 335 335 335 336 336 335 334 333 331 330 329 326 324 321 319 316 313 311 309 306 304 302 301 301 302 302 302 301 301 301 300 300 300 299 299 299 298 297 297 296 296 295
313 315 316 317 318 318 318 318 318 318 319 320 320 320 320 320 322 324 325 324 324 323 324 325 326 326 326 328 329 329 330 331 332 332 333 333 334 335 337 338 339 340 342 344 345 347 347 348 348 348 347 346 345 344 343 341 337 333 331 328 325 321 317 314 312 310 307 306 305 305 305 306 305 304 304 303 303 303 303 303 303 302 301 300 299 299 298 298
316 317 318 318 318 318 318 319 320 321 321 321 321 322 323 325 327 327 327 327 327 327 327 328 328 330 331 332 331 332 333 335 336 338 339 340 342 343 345 346 348 349 351 353 355 357 357 357 358 357 356 355 354 354 354 353 348 343 341 338 334 329 326 323 320 316 314 312 311 309 308 307 308 308 307 306 306 307 307 306 306 306 304 303 302 302 301 301
318 317 317 317 317 318 320 321 322 322 322 323 325 327 328 329 330 330 331 330 329 329 329 331 332 334 334 333 334 336 339 341 343 345 346 347 349 351 352 353 355 356 357 359 1 2 3 2 2 2 2 1 1 1 2 1 359 354 352 349 345 341 336 331 326 321 319 319 318 316 311 310 313 314 311 311 312 312 311 310 310 309 308 307 306 305 305 304
316 316 316 317 319 321 322 323 323 325 328 329 330 331 331 332 333 334 332 330 330 331 332 335 336 335 335 337 340 344 346 348 350 350 352 353 354 356 357 358 359 0 1 2 3 4 5 6 6 5 5 5 5 5 5 5 4 2 360 358 356 352 346 340 334 329 328 327 327 323 316 315 321 319 316 316 316 316 315 314 314 313 311 310 309 308 307 307
315 316 318 321 323 323 324 325 328 330 331 332 333 334 335 335 335 334 331 331 332 335 337 338 337 337 340 344 348 349 351 352 354 355 356 356 357 358 360 1 2 3 4 4 5 5 6 7 8 8 7 7 6 6 6 6 6 5 4 3 2 359 355 349 344 340 339 336 334 329 321 321 325 323 319 320 320 319 319 318 318 316 314 313 312 311 310 309
316 319 322 324 324 325 327 330 332 333 334 336 337 336 336 336 334 332 332 335 338 340 340 339 339 343 347 351 352 353 354 355 356 357 357 357 359 360 1 3 4 5 5 5 6 6 6 6 7 8 8 7 7 6 6 6 7 6 6 6 5 3 360 356 352 349 347 344 341 336 327 325 328 325 323 323 323 323 323 322 321 319 317 316 315 314 313 312
320 323 323 324 326 330 332 334 335 336 338 338 337 337 337 336 334 335 338 341 342 342 341 342 345 350 353 354 354 355 356 356 356 356 357 358 360 1 2 3 4 4 5 5 5 6 6 5 5 7 7 7 7 7 6 6 6 6 7 7 7 5 3 0 358 354 351 349 347 341 333 331 332 329 326 326 325 325 324 323 322 321 319 319 318 316 316 315
322 323 324 327 331 334 335 336 337 338 338 337 337 338 338 337 338 341 344 345 344 344 345 348 352 354 355 356 356 356 356 356 356 356 357 359 360 1 1 2 3 3 4 4 4 5 5 5 4 4 6 6 6 6 6 5 5 5 5 6 6 6 5 3 1 359 355 352 350 346 339 336 336 333 330 329 327 326 326 325 324 323 322 322 321 320 319 318
323 325 328 332 336 336 336 335 336 338 338 337 338 339 339 340 344 347 348 348 347 348 351 353 356 356 356 356 356 356 356 356 357 357 358 359 359 359 360 0 1 2 2 3 3 3 4 5 4 3 3 4 5 5 4 4 4 3 3 4 5 6 5 4 3 2 359 356 354 351 344 341 340 336 333 331 330 328 328 327 326 324 324 324 323 323 322 320
326 330 333 336 337 336 335 335 337 338 338 338 339 341 343 346 350 350 350 350 351 353 355 356 357 357 357 356 356 356 356 356 357 358 358 358 358 358 358 358 358 359 360 0 1 1 1 2 4 3 2 2 3 3 2 2 2 2 2 2 3 4 5 4 3 3 2 358 356 356 351 345 342 340 337 335 333 332 331 330 328 327 326 326 325 324 323 321
329 333 336 337 336 334 334 336 337 337 337 339 342 345 347 350 352 352 352 353 354 356 356 357 357 356 356 356 355 355 356 356 356 356 356 356 356 356 356 356 357 357 357 358 358 358 358 358 360 1 1 0 2 2 1 1 1 0 0 0 1 2 4 4 2 2 2 1 358 358 356 350 346 343 342 340 338 337 336 335 332 330 329 328 327 325 324 323
333 336 337 336 334 335 335 335 335 336 338 342 345 347 350 352 353 353 354 355 355 355 355 355 355 354 354 354 354 354 354 353 354 354 354 354 353 354 354 354 355 355 355 356 356 356 356 355 356 358 359 358 358 360 359 359 359 359 359 359 359 0 2 3 2 1 2 2 0 359 358 356 351 347 345 344 342 341 341 339 337 335 333 332 330 329 327 327
335 337 336 335 335 335 334 333 334 337 340 344 346 349 352 352 353 354 353 353 353 353 353 352 352 352 352 352 352 351 351 351 350 350 350 350 350 350 350 351 352 353 353 353 354 354 354 353 352 354 356 356 356 357 357 357 357 358 357 358 357 358 360 1 1 0 1 2 1 360 359 358 356 352 349 347 346 344 344 342 340 338 336 335 333 332 332 331
337 337 335 335 336 334 333 334 336 339 342 344 347 350 352 352 353 352 351 351 351 351 351 350 351 351 350 351 350 350 349 348 348 348 347 346 346 346 347 347 348 350 350 350 351 352 352 351 350 350 352 353 353 354 355 355 355 356 356 356 356 356 358 360 0 359 359 360 1 0 360 359 359 356 353 350 348 347 346 344 341 340 339 338 337 336 335 334
337 336 335 336 335 334 335 337 338 340 342 344 347 350 351 351 351 351 350 350 350 350 350 350 350 350 350 349 350 349 349 349 348 348 347 345 345 344 344 345 345 346 347 347 348 349 350 350 349 348 349 351 351 352 353 353 353 354 354 354 355 354 354 358 359 358 358 358 359 360 360 360 360 359 356 353 350 349 348 346 343 342 341 341 340 339 337 335
336 336 337 337 335 335 337 338 339 340 342 344 347 350 350 350 350 350 350 350 350 350 350 350 350 350 350 349 350 350 349 349 349 349 349 348 347 346 345 345 344 345 346 345 346 347 348 348 349 347 348 349 350 350 351 352 352 352 352 353 353 353 352 354 357 357 356 357 358 358 359 359 360 359 358 355 353 351 350 348 345 344 343 343 342 341 339 337
337 338 338 337 336 338 339 339 340 341 343 345 348 349 349 349 349 349 350 350 350 349 350 350 350 350 349 349 349 349 349 349 349 350 350 351 350 349 348 347 346 346 346 345 345 347 348 349 350 349 348 348 349 349 350 351 351 350 351 351 352 352 350 351 355 356 355 356 356 357 358 358 359 359 359 357 355 353 352 351 348 346 345 344 342 341 340 339
339 340 339 338 339 341 341 341 342 343 345 347 348 348 348 348 348 348 348 348 348 347 348 348 349 349 349 349 349 349 348 349 349 350 351 352 351 351 350 349 348 348 347 347 347 348 350 350 351 351 349 348 349 349 349 350 351 350 350 350 350 351 349 348 351 354 354 354 355 355 356 356 357 358 359 357 356 354 353 352 350 348 347 345 343 342 341 341